Find GEI-SAT Precursor

NORAD ID: 56934 Int'l Des: 2023-084 Owner: SATLAN Country: E operational
LEOCIRCULARRETROGRADESSO

Live Position

Loading 3D Globe...

About GEI-SAT Precursor

Description loading...

Upcoming Passes

Passes for default location (London). Set your location on the main map for personalized predictions.

Altitude History

Loading altitude history...

Two-Line Element Set

1 56934U 23084C 26107.30123814 .00005331 00000-0 16586-3 0 9993
2 56934 97.6128 246.3249 0006080 185.8838 174.2334 15.33747641158196
Epoch: Apr 17, 2026 • Age: 9 hours

Current Status

Altitude 491.1 km
Velocity 7.62 km/s
Sub-Earth Point -76.76°S, 56.25°W
Launch Date Jun 12, 2023
Age 2.8 years
Type other

Technical Details

Classification Payload
Mass 20.00 kg
Dry Mass 20.00 kg
Total Mass 20.00 kg
Length 0.40 m
Diameter 0.20 m
Span 0.40 m
Shape Box
Manufacturer NANAV
Bus Type Cubesat 16U M16P
Phase Status In Orbit
Owner/State SATLAN/E

Most Searched